Regional Weather Roundup
Issued by NWS Huntsville, AL

Home | Current Version | Previous Version | Text Only | Print | Product List | Glossary On
Versions: 1 2 3 4 5 6 7 8 9 10 11 12 13 14 15 16 17 18 19 20 21 22 23 24 25 26 27 28 29 30 31 32 33 34 35 36 37 38 39 40 41 42 43 44 45 46 47 48 49 50
000
ASUS44 KHUN 041810
RWRHUN

WEATHER ROUNDUP FOR THE TENNESSEE VALLEY
NATIONAL WEATHER SERVICE HUNTSVILLE AL
100 PM CDT SAT JUL 04 2015

ALZ001>004-041900-
NORTHWEST ALABAMA

CITY           SKY/WX    TMP DP  RH WIND       PRES   REMARKS
BANKHEAD NF      N/A     79  68  69 W3          N/A
SHOALS AIRPORT CLOUDY    78  69  73 W10       30.03R
6HR MIN TEMP:  70; 6HR MAX TEMP:  80; 6HR PCP:  0.08;

$$

ALZ005>007-016-041900-
NORTH CENTRAL ALABAMA

CITY           SKY/WX    TMP DP  RH WIND       PRES   REMARKS
DECATUR AP     PTSUNNY   80  70  71 W7        30.02F
6HR MIN TEMP:  69; 6HR MAX TEMP:  81; 6HR PCP:  0.12;

HUNTSVILLE AP  CLOUDY    82  69  64 W7        30.02F
6HR MIN TEMP:  71; 6HR MAX TEMP:  82; 6HR PCP:  0.12;

HUN NWS/UAH      N/A     80  67  64 S7          N/A
MERIDIANVILLE  PTSUNNY   79  63  57 S7        30.03F
REDSTONE ARSN  PTSUNNY   80  70  71 SW9       30.02F
VINEMONT AP    FAIR      78  67  69 SW7       30.07F
$$

ALZ008>010-041900-
NORTHEAST ALABAMA

CITY           SKY/WX    TMP DP  RH WIND       PRES   REMARKS
ALBERTVILLE    PTSUNNY   79  72  78 W10       30.05F
FORT PAYNE     CLOUDY    75  64  69 S6        30.05F
SCOTTSBORO AP  CLOUDY    77  70  78 SW6       30.04F
SCOTTSBORO HCN   N/A     77 N/A N/A MISG        N/A
VALLEY HEAD      N/A     75 N/A N/A MISG        N/A
$$

TNZ076-096-097-041900-
SOUTHEASTERN MIDDLE TENNESSEE

CITY           SKY/WX    TMP DP  RH WIND       PRES   REMARKS
TULLAHOMA      CLOUDY    73  68  83 SW8       30.05F
WINCHESTER     CLOUDY    75  70  83 SW5       30.04F
$$

...SURROUNDING SITES...

CITY           SKY/WX    TMP DP  RH WIND       PRES   REMARKS
ATLANTA        PTSUNNY   79  68  69 W12G17    30.08F
ANNISTON       PTSUNNY   81  69  67 SW5       30.06F
BIRMINGHAM     PTSUNNY   82  70  66 VRB3      30.06F
CHATTANOOGA    CLOUDY    77  67  71 SW9       30.05F
CORINTH        PTSUNNY   77  68  73 SW9G15    30.02R
DALTON         CLOUDY    75  72  88 S3        30.06F
GADSDEN        PTSUNNY   88  66  48 SW6       30.04F HX  90
GOLDEN TRNGL   CLOUDY    81  70  69 CALM      30.04S
HALEYVILLE     FAIR      77  69  76 VRB6      30.07F
JACKSON TN     CLOUDY    75  69  81 SW9       30.01R
MEMPHIS        LGT RAIN  74  70  87 S9        30.01S
NASHVILLE      CLOUDY    81  72  74 S9G16     30.00F
ROME           CLOUDY    76  69  79 S7        30.05F
SAVANNAH       MOSUNNY   79  32  18 W7        30.01S
TUPELO         CLOUDY    76  70  82 VRB6      30.02F
TUSCALOOSA     MOSUNNY   84  69  60 W5        30.04F
$$

...GULF COAST WEATHER...

CITY           SKY/WX    TMP DP  RH WIND       PRES   REMARKS
GULFPORT       SUNNY     88  73  61 S12       30.04F HX  95
PASCAGOULA     MOSUNNY   89  76  65 VRB7G18   30.05F HX 100
MOBILE         PTSUNNY   90  71  53 S15       30.05F HX  96
GULF SHORES    PTCLDY    90  73  58 SW12      30.06F HX  98
PENSACOLA      PTSUNNY   88  73  61 SW15      30.06F HX  95
DESTIN         MOSUNNY   88  75  65 SW8       30.07F HX  97
PANAMA CITY    PTSUNNY   88  77  70 SW12      30.09F HX 100
APPALACHICOLA  SUNNY     92  75  57 S13       30.09F HX 103
$$




USA.gov is the U.S. government's official web portal to all federal, state and local government web resources and services.